SB KEPS @ AMSAT $ORB12054.N 2Line Orbital Elements 12054.AMSAT
HR AMSAT ORBITAL ELEMENTS FOR AMATEUR SATELLITES IN NASA FORMAT FROM WA5QGD FORT WORTH,TX February 23, 2012 Send SUBSCRIBE KEPS/UNSUBSCRIBE KEPS to [email protected] only BID: ORB12054.N
DECODE 2-LINE ELSETS WITH THE FOLLOWING KEY: 1 AAAAAU 00 0 0 BBBBB.BBBBBBBB .CCCCCCCC 00000-0 00000-0 0 DDDZ 2 AAAAA EEE.EEEE FFF.FFFF GGGGGGG HHH.HHHH III.IIII JJ.JJJJJJJJKKKKKZ KEY: A-CATALOGNUM B-EPOCHTIME C-DECAY D-ELSETNUM E-INCLINATION F-RAAN G-ECCENTRICITY H-ARGPERIGEE I-MNANOM J-MNMOTION K-ORBITNUM Z-CHECKSUM
TO ALL RADIO AMATEURS BT
AO-07 1 07530U 74089B 12053.50705951 -.00000027 00000-0 10000-3 0 03141 2 07530 101.4006 055.2009 0011901 148.3379 211.8413 12.53587723705552 FO-29 1 24278U 96046B 12054.85786280 .00000017 00000-0 55854-4 0 7799 2 24278 098.5737 170.5180 0350257 325.4654 032.4171 13.52977088766497 SO-33 1 25509U 98061B 12054.81468340 .00000222 00000-0 30181-4 0 1716 2 25509 031.4344 260.8870 0353444 282.5046 073.6416 14.28670735696284 RS-22 1 27939U 03042A 12054.58220596 .00000446 00000-0 93728-4 0 1111 2 27939 097.8205 261.2174 0012287 269.0191 090.9601 14.63906581449111 VO-52 1 28650U 05017B 12054.67657163 .00001204 00000-0 15453-3 0 323 2 28650 097.6106 091.1789 0027646 058.3399 302.0482 14.82690509368009 HO-68 1 36122U 09072B 12054.74822682 -.00000044 00000-0 00000 0 0 2253 2 36122 100.3778 116.3391 0007624 012.8426 347.2881 13.16293173105339 UO-11 1 14781U 84021B 12054.82474479 .00000519 00000-0 74971-4 0 7965 2 14781 097.9697 115.2762 0009921 048.4787 311.7277 14.80318734503019 AO-16 1 20439U 90005D 12053.87079249 .00000091 00000-0 49469-4 0 04170 2 20439 098.4175 000.5483 0011404 136.9646 223.2431 14.32018879153491 LO-19 1 20442U 90005G 12053.91138617 .00000017 00000-0 21704-4 0 03285 2 20442 098.3827 004.0036 0012580 130.1522 230.0768 14.32239094153680 AO-27 1 22825U 93061C 12054.80081489 .00000108 00000-0 59375-4 0 395 2 22825 098.5643 359.4669 0007647 254.3123 105.7250 14.29431580960138 IO-26 1 22826U 93061D 12053.91368013 .00000085 00000-0 50197-4 0 07897 2 22826 098.5564 358.9949 0008081 251.5382 108.4922 14.29702133960136 GO-32 1 25397U 98043D 12054.59619161 -.00000056 00000-0 -65577-5 0 7109 2 25397 098.3512 039.0147 0000451 218.9154 141.1978 14.23258138707721 NO-44 1 26931U 01043C 12052.92157605 -.00000055 00000-0 10777-4 0 09766 2 26931 067.0519 059.9864 0006382 277.1004 082.9368 14.29761718542623 SO-50 1 27607U 02058C 12054.17480086 .00000462 00000-0 90857-4 0 6951 2 27607 064.5585 284.7278 0085204 270.9684 088.1655 14.72223166493036 CO-55 1 27844U 03031E 12054.50089405 .00000198 00000-0 11133-3 0 3168 2 27844 098.7051 064.5427 0009373 189.9245 170.1751 14.20964958448607 CO-57 1 27848U 03031J 12053.49881613 .00000153 00000-0 91387-4 0 02654 2 27848 098.7130 062.8388 0009057 196.8721 163.2170 14.20723838448407 AO-51 1 28375U 04025K 12054.78152809 .00000152 00000-0 58301-4 0 2013 2 28375 098.1312 025.4701 0084721 027.8488 332.7199 14.40898154402294 CP3 1 31129U 07012N 12054.49250544 .00000504 00000-0 12437-3 0 991 2 31129 097.8865 069.0197 0102404 119.5675 241.5780 14.52896726257324 CO-65 1 32785U 08021C 12053.18023481 .00000707 00000-0 94014-4 0 02375 2 32785 097.8158 116.9216 0015855 081.3389 278.9585 14.82694771206570 PRISM 1 33493U 09002B 12054.80555714 .00002158 00000-0 27037-3 0 4522 2 33493 098.1520 192.8160 0018188 309.7915 050.1700 14.83229512166795 SOHLA-1 1 33496U 09002E 12054.88061250 .00000321 00000-0 61973-4 0 6575 2 33496 098.0922 167.4598 0007451 049.2206 310.9644 14.69872258165457 SO-67 1 35870U 09049F 12054.81112396 .00003487 00000-0 15192-3 0 7090 2 35870 097.2479 094.5730 0001597 165.3369 247.2159 15.22832943135206 TISAT-1 1 36799U 10035E 12054.81226880 .00001441 00000-0 19028-3 0 7261 2 36799 098.0722 130.3051 0015167 178.3209 181.8038 14.81537759 87551 STUDSAT 1 36801U 10035G 12053.88739087 .00004192 00000-0 51978-3 0 3429 2 36801 098.0796 129.6475 0012935 169.0517 191.0968 14.83161242 87429 FO-69 1 37227U 0 12046.04422040 .00000330 00000-0 54773-4 0 01033 2 37227 071.9672 223.6606 0017759 195.0744 164.9889 14.76923927017912 FO-70 1 37380U 0 12046.50349291 .00000331 00000-0 55150-4 0 01064 2 37380 071.9705 223.0530 0018152 191.1227 168.9536 14.76682035017870 NOAA-10 1 16969U 86073A 12054.28219727 -.00000027 00000-0 67722-5 0 8285 2 16969 098.5942 085.3150 0011930 207.5753 152.4798 14.27528554323473 NOAA-11 1 19531U 88089A 12054.30704080 -.00000081 00000-0 -19342-4 0 8269 2 19531 098.7361 141.8684 0010939 188.1515 171.9490 14.14952705208265 NOAA-12 1 21263U 91032A 12054.56576998 .00000081 00000-0 52897-4 0 3152 2 21263 098.7379 076.7229 0013682 170.4767 189.6675 14.25478987 80223 MET-3/5 1 21655U 91056A 12054.81701394 .00000051 00000-0 10000-3 0 3438 2 21655 082.5529 232.9741 0012287 246.5923 113.3871 13.17037448986848 MET-2/21 1 22782U 93055A 12053.74682537 .00000006 00000-0 -82800-5 0 03462 2 22782 082.5495 124.1128 0024041 114.6046 245.7638 13.83676646933200 OKEAN-4 1 23317U 94066A 12053.91024837 .00000679 00000-0 79132-4 0 08690 2 23317 082.5428 138.9581 0022088 016.9112 343.2837 14.83593662937716 NOAA-14 1 23455U 94089A 12054.54709099 .00000074 00000-0 62066-4 0 7975 2 23455 098.8336 139.4717 0008737 289.4135 070.6094 14.13878133884596 NOAA-15 1 25338U 98030A 12054.39987089 .00000121 00000-0 70540-4 0 1565 2 25338 098.6816 042.4452 0011608 083.4118 276.8382 14.25032478716504 RESURS 1 25394U 98043A 12054.82233807 .00000024 00000-0 28073-4 0 218 2 25394 098.3121 049.1246 0000871 174.7608 185.3581 14.24274311708122 FENGYUN1 1 25730U 99025A 12053.92587839 .00001369 00000-0 81056-3 0 5431 2 25730 098.8387 014.9755 0020447 336.7306 023.2931 14.09255858658374 OKEAN-0 1 25860U 99039A 12053.93844567 .00000407 00000-0 69275-4 0 05695 2 25860 097.9202 019.0446 0000464 073.2055 286.9199 14.74090685677594 NOAA-16 1 26536U 00055A 12054.37287225 .00000415 00000-0 24840-3 0 6404 2 26536 099.1103 094.6446 0011053 049.7856 310.4306 14.12708539588827 NOAA-17 1 27453U 02032A 12054.31390027 .00000186 00000-0 98062-4 0 6086 2 27453 098.3494 087.0902 0012495 130.7792 229.4467 14.24396298502409 NOAA-18 1 28654U 05018A 12054.38344302 -.00000049 00000-0 -22006-5 0 854 2 28654 099.0327 011.6014 0015027 116.2247 244.0486 14.11606379348368 NOAA-19 1 33591U 09005A 12054.36555991 .00000097 00000-0 77908-4 0 2747 2 33591 098.8548 355.6384 0014163 349.7124 010.3752 14.11296945156815 HUBBLE 1 20580U 90037B 12054.06756340 .00001552 00000-0 10250-3 0 9485 2 20580 028.4682 176.7224 0003046 274.1397 085.8949 15.02204207997407 ISS 1 25544U 98067A 12054.95299164 .00019173 00000-0 24316-3 0 695 2 25544 051.6442 334.9734 0020665 078.2958 019.4320 15.59228772760207 CO-58 1 28895U 05043F 12053.85353521 .00000578 00000-0 12801-3 0 01073 2 28895 097.9338 285.0921 0018235 150.4245 209.8028 14.60490559336824 FALCON 1 30776U 07006E 12053.92233472 .00003345 00000-0 22360-3 0 03040 2 30776 035.4331 260.4072 0001745 061.7876 298.3017 15.06663449272855 MAST 1 31126U 07012K 12054.58263514 .00000350 00000-0 88045-4 0 3912 2 31126 097.8794 072.3727 0094973 107.5255 253.6332 14.54038669257615 CAPE1 1 31130U 07012P 12053.76332007 .00000620 00000-0 15110-3 0 4025 2 31130 097.8879 068.0628 0102772 122.2903 238.8306 14.52776271257013 COMPASS 1 32787U 08021E 12053.68438507 .00002172 00000-0 26968-3 0 02315 2 32787 097.8132 117.5382 0016389 079.6177 280.6881 14.83535127206684 AAUSAT2 1 32788U 08021F 12053.61014188 .00002152 00000-0 26551-3 0 02231 2 32788 097.8161 117.7884 0016290 080.8331 279.4722 14.83815616206698 DO-64 1 32789U 08021G 12053.82840591 .00003369 00000-0 40055-3 0 02382 2 32789 097.8267 119.6197 0015881 078.1035 282.1933 14.84982575206752 CO-66 1 32791U 08021J 12053.83422156 .00001340 00000-0 17088-3 0 02252 2 32791 097.8173 117.5118 0017002 078.9051 281.4014 14.83034006206640 RS-30 1 32953U 08025A 12054.83554269 .00000010 00000-0 00000 0 0 5481 2 32953 082.5044 006.2416 0017926 194.4922 165.5651 12.43021174170352 TACSAT-3 1 35001U 09028A 12053.48608741 .00108243 00000-0 69586-3 0 08867 2 35001 040.4479 071.9357 0005712 164.3859 195.7146 15.75037288156137 PHARMSAT 1 35002U 09028B 12053.47316259 .00047281 00000-0 45487-3 0 8045 2 35002 040.4649 076.8989 0006087 297.9978 062.0228 15.65664785156081 METEOR-M 1 35865U 09049A 12054.72730493 -.00000023 00000-0 94764-5 0 1708 2 35865 098.6705 111.1214 0003122 035.6459 324.4926 14.21855837126334 RS-38 1 35869U 09049E 12054.83529238 .00000024 00000-0 30709-4 0 1794 2 35869 098.6672 111.2407 0005133 031.9577 328.1910 14.22055333126361 JUGNU 1 37839U 11058B 12053.84326970 .00000619 00000-0 19019-3 0 939 2 37839 019.9615 336.9786 0019482 034.5113 325.6540 14.12027202 18922 SRMSAT 1 37841U 11058D 12053.95332316 .00000264 00000-0 00000-0 0 00961 2 37841 019.9742 338.9476 0011707 003.8865 356.1630 14.10116249018915 RAX-2 1 37853U 11061D 12053.94856459 .00006129 00000-0 49676-3 0 01148 2 37853 101.7132 041.7547 0250908 319.1716 039.0906 14.78937030017369 AUBIESAT 1 37854U 11061E 12053.93012434 .00006913 00000-0 55335-3 0 1066 2 37854 101.7166 041.8386 0251037 318.6343 039.6078 14.79248141 17346 HRBE 1 37855U 11061F 12053.93434127 .00006512 00000-0 52137-3 0 01190 2 37855 101.7181 041.8324 0251980 318.7611 039.4793 14.79149398017348 RS-39 1 38051U 11062C 12054.83254137 .00009083 00000-0 40089-3 0 908 2 38051 051.6525 343.9472 0011711 352.7574 035.1393 15.22409275 4543 /EX
participants (1)
-
Ray Hoad